EW7771 Weather Reports


Display with metric or nautical units.
time (UTC)temp
F
wind
direction
speed
MPH
gust
MPH
rain 1hr
in
rain 24hr
in
rain mn
in
humidity
%
barometer
mb
20260831050934 54 223 0.0 0.0 0.00 0.00 0.00 91 1016.7
20260831050432 54 223 0.0 1.0 0.00 0.00 0.00 91 1016.8
20260831045931 54 223 0.0 1.0 0.00 0.00 0.00 91 1016.8
20260831045435 54 223 0.0 1.0 0.00 0.00 0.00 91 1016.8
20260831044930 55 223 0.0 0.0 0.00 0.00 0.00 91 1016.8
20260831044429 55 223 0.0 0.0 0.00 0.00 0.00 90 1016.8
20260831043928 55 223 0.0 0.0 0.00 0.00 0.00 90 1016.8
20260831043649 55 223 0.0 0.0 0.00 0.00 0.00 89 1016.8
20260831042924 55 223 0.0 0.0 0.00 0.00 0.00 90 1016.9
20260831042420 56 223 0.0 0.0 0.00 0.00 0.00 89 1016.8
20260831041921 56 223 0.0 1.0 0.00 0.00 0.00 89 1016.8
20260831041647 56 223 0.0 1.0 0.00 0.00 0.00 89 1016.8
20260831040911 56 223 0.0 0.0 0.00 0.01 0.00 89 1016.9
20260831040631 56 223 0.0 1.0 0.00 0.01 0.00 88 1016.8
20260831035859 57 223 0.0 1.0 0.00 0.01 0.00 88 1016.8
20260831035353 57 223 0.0 1.0 0.00 0.01 0.00 88 1016.7
20260831034847 57 223 0.0 0.0 0.00 0.01 0.00 88 1016.7
20260831034342 57 223 0.0 0.0 0.00 0.01 0.00 87 1016.6
20260831034056 58 223 0.0 0.0 0.00 0.01 0.00 86 1016.6
20260831033335 58 223 0.0 1.0 0.00 0.01 0.00 86 1016.6
20260831032832 58 223 0.0 1.0 0.00 0.01 0.00 85 1016.5
20260831032331 58 223 0.0 1.0 0.00 0.01 0.00 85 1016.5
20260831031837 59 223 0.0 2.0 0.00 0.01 0.00 85 1016.4
20260831031334 59 223 0.0 2.0 0.00 0.01 0.00 83 1016.4
20260831030829 60 223 0.0 2.0 0.00 0.01 0.00 83 1016.4
20260831030328 60 223 1.0 3.0 0.00 0.01 0.00 83 1016.4
20260831030051 60 225 1.0 3.0 0.00 0.01 0.00 82 1016.4
20260831025326 61 178 0.0 2.0 0.00 0.01 0.00 82 1016.4
20260831024825 61 178 0.0 2.0 0.00 0.02 0.00 81 1016.4
20260831024328 62 178 0.0 2.0 0.00 0.02 0.00 81 1016.5
20260831023826 62 178 0.0 1.0 0.00 0.02 0.00 81 1016.5
20260831023322 63 178 0.0 1.0 0.00 0.02 0.00 81 1016.5
20260831022822 63 178 0.0 1.0 0.00 0.02 0.00 82 1016.5
20260831022323 63 178 0.0 2.0 0.00 0.02 0.00 82 1016.5
20260831021822 64 178 0.0 2.0 0.00 0.02 0.00 82 1016.5
20260831021331 64 178 0.0 1.0 0.00 0.02 0.00 82 1016.5
20260831020827 64 178 0.0 1.0 0.00 0.02 0.00 83 1016.5
20260831020325 64 178 0.0 1.0 0.00 0.02 0.00 82 1016.6
20260831015828 65 178 0.0 1.0 0.00 0.02 0.00 80 1016.5
20260831015325 65 178 0.0 0.0 0.00 0.02 0.00 80 1016.6
20260831014819 65 178 0.0 1.0 0.00 0.02 0.00 81 1016.7
20260831014323 65 178 0.0 1.0 0.00 0.02 0.00 80 1016.7
20260831013822 65 178 0.0 1.0 0.00 0.02 0.00 81 1016.7
20260831013553 65 178 0.0 0.0 0.00 0.02 0.00 80 1016.7
20260831013545 65 178 0.0 0.0 0.00 0.02 0.00 78 1016.8
20260831013541 65 178 0.0 0.0 0.00 0.02 0.00 79 1016.7
20260831012049 66 178 0.0 0.0 0.00 0.02 0.00 78 1016.9
20260831011317 66 178 0.0 0.0 0.00 0.02 0.00 80 1016.9
20260831010818 66 178 0.0 0.0 0.00 0.02 0.00 80 1016.9
20260831010315 66 178 0.0 1.0 0.00 0.02 0.00 79 1016.9
20260831005811 66 178 0.0 1.0 0.00 0.02 0.00 78 1016.9
20260831005312 66 178 0.0 1.0 0.00 0.02 0.00 76 1017.0
20260831004812 67 178 0.0 0.0 0.00 0.02 0.00 77 1017.0
20260831004307 67 178 0.0 0.0 0.00 0.02 0.00 77 1017.0
20260831003808 67 178 0.0 0.0 0.00 0.02 0.00 76 1017.0
20260831003307 67 178 0.0 0.0 0.00 0.02 0.00 73 1017.0
20260831002805 67 178 0.0 0.0 0.00 0.02 0.00 74 1017.0
20260831002306 67 178 0.0 0.0 0.00 0.02 0.00 73 1017.1
20260831001802 68 178 0.0 0.0 0.00 0.02 0.00 72 1017.1
20260831001530 68 178 0.0 0.0 0.00 0.02 0.00 74 1017.2
20260831000804 68 178 0.0 0.0 0.00 0.02 0.00 70 1017.1
20260831000258 68 178 0.0 1.0 0.00 0.02 0.00 73 1017.0
20260830235754 68 178 0.0 1.0 0.00 0.02 0.00 64 1017.0
20260830235246 68 178 0.0 1.0 0.00 0.02 0.00 67 1017.1
20260830234740 68 178 0.0 2.0 0.00 0.02 0.00 65 1017.2
20260830234456 68 178 0.0 3.0 0.00 0.02 0.00 60 1017.1
20260830233729 68 175 1.0 5.0 0.00 0.02 0.00 61 1017.2
20260830233222 69 183 1.0 5.0 0.00 0.02 0.00 59 1017.2
20260830232712 69 189 1.0 4.0 0.00 0.02 0.00 62 1017.2
20260830232210 69 182 1.0 2.0 0.00 0.02 0.00 59 1017.3
20260830231704 69 204 2.0 5.0 0.00 0.02 0.00 61 1017.4
20260830231158 69 240 2.0 6.0 0.00 0.02 0.00 55 1017.4
20260830230652 70 209 1.0 6.0 0.00 0.02 0.00 56 1017.5
20260830230148 71 344 0.0 1.0 0.00 0.02 0.00 60 1017.5
20260830225906 71 344 0.0 1.0 0.00 0.02 0.00 58 1017.5
20260830225134 71 344 0.0 2.0 0.00 0.02 0.00 55 1017.5
20260830224627 71 340 0.0 3.0 0.00 0.02 0.00 58 1017.5
20260830224124 71 212 1.0 4.0 0.00 0.02 0.00 54 1017.4
20260830223844 71 142 1.0 4.0 0.00 0.02 0.00 56 1017.4
20260830223114 72 267 1.0 2.0 0.00 0.02 0.00 54 1017.4
20260830222828 72 32 1.0 3.0 0.00 0.02 0.00 59 1017.4
20260830222057 72 280 2.0 6.0 0.00 0.02 0.00 51 1017.5
20260830221555 72 59 1.0 6.0 0.00 0.02 0.00 54 1017.6
20260830221046 72 263 1.0 3.0 0.00 0.02 0.00 58 1017.5
20260830220541 71 238 1.0 5.0 0.00 0.02 0.00 57 1017.6
20260830220036 70 233 1.0 5.0 0.00 0.02 0.00 58 1017.6
20260830215530 70 213 1.0 5.0 0.00 0.02 0.00 54 1017.7
20260830215250 70 345 1.0 2.0 0.00 0.02 0.00 59 1017.9
20260830214516 70 293 1.0 4.0 0.00 0.02 0.00 57 1017.9
20260830214013 69 355 1.0 4.0 0.00 0.02 0.00 57 1018.0
20260830213511 69 230 2.0 5.0 0.00 0.02 0.00 60 1018.0
20260830213012 68 55 2.0 5.0 0.00 0.02 0.00 60 1018.1
20260830212510 68 155 1.0 4.0 0.00 0.02 0.00 58 1018.1
20260830212009 68 55 1.0 5.0 0.00 0.02 0.00 61 1018.3
20260830211507 68 355 2.0 5.0 0.00 0.02 0.00 62 1018.4
20260830211235 67 335 1.0 4.0 0.00 0.02 0.00 62 1018.4
20260830210506 67 126 1.0 3.0 0.00 0.02 0.00 60 1018.5
20260830210004 67 83 1.0 4.0 0.00 0.02 0.00 64 1018.5
20260830205728 67 67 1.0 4.0 0.00 0.02 0.00 64 1018.6
20260830205011 67 17 0.0 2.0 0.00 0.02 0.00 65 1018.5
20260830204505 67 228 1.0 4.0 0.00 0.02 0.00 61 1018.6
20260830204005 67 177 1.0 4.0 0.00 0.02 0.00 60 1018.7
20260830203501 67 71 1.0 3.0 0.00 0.02 0.00 63 1018.7
20260830203001 67 226 1.0 3.0 0.00 0.02 0.00 62 1018.6
20260830202457 67 195 2.0 5.0 0.00 0.02 0.00 57 1018.6
20260830201957 67 163 1.0 5.0 0.00 0.02 0.00 61 1018.6
20260830201729 66 227 0.0 2.0 0.00 0.02 0.00 62 1018.7
20260830200955 66 111 1.0 4.0 0.00 0.02 0.00 70 1018.7
20260830200453 66 147 1.0 4.0 0.00 0.02 0.00 61 1018.8
20260830195953 66 5 0.0 1.0 0.00 0.02 0.00 62 1018.7
20260830195454 66 317 0.0 2.0 0.00 0.05 0.00 65 1018.8
20260830195219 66 28 0.0 2.0 0.00 0.05 0.00 69 1018.8
20260830194453 65 19 0.0 4.0 0.00 0.05 0.00 68 1018.7
20260830194001 65 71 1.0 4.0 0.00 0.05 0.00 66 1018.8
20260830193457 65 138 1.0 3.0 0.00 0.05 0.00 71 1018.8
20260830192956 65 138 0.0 3.0 0.00 0.05 0.00 68 1018.8
20260830192453 65 249 0.0 2.0 0.00 0.06 0.00 70 1018.9
20260830191953 65 5 0.0 3.0 0.00 0.06 0.00 69 1018.8
20260830191454 65 252 1.0 3.0 0.00 0.06 0.00 71 1018.9
20260830190953 64 111 1.0 3.0 0.00 0.06 0.00 68 1018.9
20260830190454 64 271 0.0 2.0 0.00 0.06 0.00 68 1019.0
20260830190221 64 246 1.0 4.0 0.00 0.06 0.00 70 1019.0
20260830185454 64 22 2.0 5.0 0.00 0.06 0.00 71 1019.1
20260830184951 63 117 1.0 5.0 0.00 0.06 0.00 71 1019.1
20260830184936 62 188 1.0 5.0 0.00 0.06 0.00 74 1019.1
20260830184217 62 151 0.0 4.0 0.00 0.07 0.00 72 1019.1
20260830183451 62 116 0.0 3.0 0.00 0.07 0.00 73 1019.2
20260830182954 62 5 0.0 2.0 0.00 0.07 0.00 75 1019.2
20260830182948 62 9 1.0 3.0 0.00 0.07 0.00 78 1019.3
20260830181954 61 355 2.0 5.0 0.00 0.07 0.00 77 1019.3
20260830181451 61 140 2.0 5.0 0.00 0.08 0.00 79 1019.3
20260830180952 60 155 2.0 5.0 0.00 0.08 0.00 79 1019.2
20260830180448 60 183 2.0 5.0 0.00 0.08 0.00 81 1019.2
20260830175947 59 167 1.0 4.0 0.00 0.08 0.00 79 1019.2
20260830175449 59 217 0.0 2.0 0.00 0.08 0.00 82 1019.2
20260830175219 59 123 0.0 1.0 0.00 0.08 0.00 88 1019.2
20260830174445 59 123 0.0 2.0 0.00 0.08 0.00 86 1019.2
20260830173946 59 144 0.0 2.0 0.00 0.08 0.00 82 1019.2
20260830173714 59 12 0.0 2.0 0.00 0.08 0.00 83 1019.2
20260830172946 59 11 1.0 3.0 0.00 0.08 0.00 87 1019.1
20260830172714 58 252 1.0 4.0 0.00 0.08 0.00 84 1019.2
20260830171943 58 140 1.0 4.0 0.00 0.08 0.00 85 1019.1
20260830171443 57 98 0.0 1.0 0.00 0.08 0.00 90 1019.0
20260830170953 57 98 1.0 4.0 0.00 0.08 0.00 90 1019.0
20260830170445 56 195 1.0 4.0 0.00 0.08 0.00 90 1019.1
20260830165938 56 150 0.0 2.0 0.00 0.08 0.00 92 1019.1
20260830165431 56 102 0.0 2.0 0.00 0.08 0.00 93 1019.1
20260830164927 56 185 0.0 1.0 0.00 0.08 0.00 95 1019.0
20260830164418 56 185 0.0 1.0 0.00 0.08 0.00 96 1019.1
20260830164145 56 185 0.0 1.0 0.00 0.08 0.00 96 1019.0
20260830163409 55 194 0.0 0.0 0.00 0.08 0.00 97 1019.1
20260830162901 55 194 0.0 1.0 0.00 0.08 0.00 96 1019.1
20260830162614 55 194 0.0 1.0 0.00 0.09 0.00 96 1019.2
20260830161851 55 194 0.0 0.0 0.00 0.10 0.00 97 1019.1
20260830161346 54 194 0.0 0.0 0.00 0.11 0.00 97 1019.2
20260830160841 54 194 0.0 0.0 0.00 0.14 0.00 97 1019.2
20260830160333 54 194 0.0 0.0 0.00 0.16 0.00 97 1019.2
20260830155823 54 194 0.0 0.0 0.00 0.18 0.00 97 1019.2
20260830155537 54 194 0.0 0.0 0.00 0.19 0.00 97 1019.3
20260830154817 54 194 0.0 0.0 0.00 0.20 0.00 97 1019.3
20260830154529 53 194 0.0 0.0 0.00 0.21 0.00 97 1019.2
20260830153802 53 194 0.0 0.0 0.00 0.21 0.00 97 1019.2
20260830153254 53 194 0.0 0.0 0.00 0.21 0.00 96 1019.1
20260830152753 53 194 0.0 0.0 0.00 0.22 0.00 96 1019.2
20260830152245 53 194 0.0 0.0 0.00 0.23 0.00 96 1019.3
20260830151735 53 194 0.0 0.0 0.00 0.25 0.00 96 1019.2
20260830151234 53 194 0.0 0.0 0.00 0.28 0.00 96 1019.2
20260830150729 53 194 0.0 1.0 0.00 0.37 0.00 96 1019.3
20260830150221 53 194 0.0 1.0 0.00 0.45 0.00 96 1019.3
20260830145716 53 194 0.0 0.0 0.00 0.46 0.00 96 1019.3
20260830145427 53 194 0.0 0.0 0.00 0.47 0.00 96 1019.2
20260830145156 53 194 0.0 0.0 0.00 0.47 0.00 96 1019.2
20260830144157 53 194 0.0 0.0 0.00 0.47 0.00 96 1019.1
20260830143650 53 194 0.0 0.0 0.00 0.47 0.00 96 1019.1
20260830143625 53 194 0.0 0.0 0.00 0.47 0.00 96 1019.1
20260830142641 53 194 0.0 1.0 0.00 0.47 0.00 96 1019.0
20260830142352 53 194 0.0 1.0 0.00 0.48 0.00 96 1019.0
20260830141627 53 193 0.0 0.0 0.00 0.48 0.00 96 1019.0
20260830141117 53 193 0.0 0.0 0.00 0.48 0.00 96 1018.9
20260830140617 53 193 0.0 0.0 0.00 0.48 0.00 96 1018.9
20260830140109 53 193 0.0 0.0 0.00 0.48 0.00 96 1019.0
20260830135603 53 193 0.0 0.0 0.00 0.48 0.00 96 1018.9
20260830135056 53 193 0.0 0.0 0.00 0.48 0.00 96 1018.9
20260830134551 53 193 0.0 0.0 0.00 0.48 0.00 96 1018.9
20260830134049 53 193 0.0 0.0 0.00 0.48 0.00 96 1018.9
20260830133548 53 193 0.0 0.0 0.00 0.48 0.00 96 1018.9
20260830133049 53 193 0.0 0.0 0.00 0.48 0.00 96 1018.8
20260830132548 53 193 0.0 0.0 0.00 0.48 0.00 96 1018.8
20260830132322 53 193 0.0 0.0 0.00 0.48 0.00 96 1018.8
20260830131551 53 193 0.0 0.0 0.00 0.48 0.00 96 1018.9
20260830131047 53 193 0.0 0.0 0.00 0.48 0.00 96 1018.9
20260830130546 53 193 0.0 0.0 0.00 0.48 0.00 96 1018.9
20260830130043 53 193 0.0 0.0 0.00 0.48 0.00 96 1018.9
20260830125813 53 193 0.0 0.0 0.00 0.48 0.00 96 1018.9
20260830125320 53 193 0.0 0.0 0.00 0.48 0.00 96 1018.9
20260830124547 53 193 0.0 0.0 0.00 0.48 0.00 96 1019.0
20260830124045 53 193 0.0 0.0 0.00 0.48 0.00 96 1019.0
20260830123546 53 193 0.0 0.0 0.00 0.48 0.00 96 1018.9
20260830123043 53 193 0.0 0.0 0.00 0.48 0.00 96 1018.9
20260830122814 53 193 0.0 0.0 0.00 0.48 0.00 96 1018.9
20260830122038 53 193 0.0 0.0 0.00 0.48 0.00 96 1018.9
20260830121536 53 193 0.0 0.0 0.00 0.48 0.00 96 1018.9
20260830121313 53 193 0.0 0.0 0.00 0.48 0.00 96 1018.8
20260830120538 53 193 0.0 0.0 0.00 0.48 0.00 96 1018.9
20260830120308 53 193 0.0 0.0 0.00 0.48 0.00 96 1018.8
20260830115801 53 193 0.0 0.0 0.00 0.48 0.00 96 1018.7
20260830115036 53 193 0.0 0.0 0.00 0.48 0.00 96 1018.8
20260830114536 53 193 0.0 0.0 0.00 0.48 0.00 95 1018.7
20260830114038 53 193 0.0 0.0 0.00 0.48 0.00 96 1018.7
20260830113537 53 193 0.0 0.0 0.00 0.48 0.00 96 1018.7
20260830113035 53 193 0.0 0.0 0.00 0.48 0.00 96 1018.6
20260830112538 53 193 0.0 1.0 0.00 0.48 0.00 96 1018.6
20260830112525 53 193 0.0 2.0 0.00 0.48 0.00 96 1018.5
20260830111537 53 193 0.0 2.0 0.00 0.48 0.00 96 1018.7
20260830111035 53 179 0.0 0.0 0.00 0.48 0.00 96 1018.7
20260830110538 53 179 0.0 1.0 0.00 0.48 0.00 96 1018.8
20260830110037 53 179 0.0 1.0 0.00 0.48 0.00 96 1018.7
20260830105536 53 179 0.0 1.0 0.00 0.48 0.00 95 1018.7
20260830105305 53 179 0.0 0.0 0.00 0.48 0.00 95 1018.7
20260830104537 53 179 0.0 0.0 0.00 0.48 0.00 95 1018.7
20260830104251 53 179 0.0 1.0 0.00 0.48 0.00 95 1018.7
20260830103525 53 179 0.0 1.0 0.00 0.49 0.00 95 1018.6
20260830103020 54 179 0.0 1.0 0.00 0.50 0.00 95 1018.7
20260830102510 54 179 0.0 1.0 0.00 0.51 0.00 95 1018.7
20260830102008 54 179 0.0 1.0 0.00 0.52 0.00 95 1018.8
20260830101458 54 179 0.0 1.0 0.00 0.53 0.00 95 1018.8
20260830100958 54 179 0.0 1.0 0.00 0.53 0.00 95 1018.8
20260830100450 54 179 0.0 1.0 0.00 0.53 0.00 95 1018.6
20260830095944 54 179 1.0 2.0 0.00 0.54 0.00 95 1018.6
20260830095706 53 179 0.0 2.0 0.00 0.55 0.00 95 1018.7
20260830094934 53 88 0.0 1.0 0.00 0.57 0.00 95 1018.6
20260830094425 53 223 0.0 3.0 0.00 0.58 0.00 95 1018.6
20260830093918 53 227 0.0 3.0 0.00 0.59 0.00 95 1018.6
20260830093412 54 202 0.0 2.0 0.00 0.59 0.00 96 1018.6
20260830092905 54 171 1.0 5.0 0.00 0.59 0.00 96 1018.6
20260830092620 54 232 1.0 5.0 0.00 0.59 0.00 96 1018.6
20260830092115 54 159 0.0 2.0 0.00 0.59 0.00 96 1018.6
20260830091345 54 51 0.0 1.0 0.00 0.59 0.00 96 1018.6
20260830090842 54 45 0.0 0.0 0.00 0.59 0.00 96 1018.6
20260830090335 54 45 0.0 0.0 0.00 0.59 0.00 96 1018.6
20260830085828 54 45 0.0 0.0 0.00 0.60 0.00 96 1018.6
20260830085324 54 45 0.0 0.0 0.00 0.61 0.00 96 1018.7
20260830084815 54 45 0.0 0.0 0.00 0.61 0.00 96 1018.6
20260830084313 54 45 0.0 0.0 0.00 0.62 0.00 96 1018.6
20260830083808 54 45 0.0 1.0 0.00 0.62 0.00 96 1018.6
20260830083300 54 45 0.0 1.0 0.00 0.62 0.00 96 1018.5
20260830082754 54 45 0.0 2.0 0.00 0.62 0.00 96 1018.5
20260830082510 54 45 0.0 2.0 0.00 0.62 0.00 96 1018.5
20260830081745 54 34 0.0 2.0 0.00 0.62 0.00 96 1018.6
20260830081236 54 165 1.0 2.0 0.00 0.62 0.00 96 1018.5
20260830080730 54 182 1.0 2.0 0.00 0.62 0.00 96 1018.5
20260830080443 55 186 0.0 2.0 0.00 0.62 0.00 96 1018.6
20260830075941 55 188 0.0 0.0 0.00 0.62 0.00 96 1018.6
20260830075211 55 188 0.0 0.0 0.00 0.62 0.00 96 1018.6
20260830074706 55 188 0.0 1.0 0.00 0.62 0.00 96 1018.6
20260830074426 55 188 0.0 1.0 0.00 0.62 0.00 96 1018.5
20260830073654 55 188 0.0 0.0 0.00 0.62 0.00 96 1018.4
20260830073150 55 188 0.0 1.0 0.00 0.62 0.00 96 1018.5
20260830072702 55 188 0.0 1.0 0.00 0.62 0.00 96 1018.3
20260830072649 55 188 0.0 1.0 0.00 0.62 0.00 96 1018.4
20260830071647 55 213 0.0 0.0 0.00 0.62 0.00 96 1018.3
20260830071147 55 213 0.0 0.0 0.00 0.62 0.00 96 1018.3
20260830070643 55 213 0.0 0.0 0.00 0.62 0.00 96 1018.5
20260830070143 55 213 0.0 0.0 0.00 0.62 0.00 96 1018.5
20260830065643 55 213 0.0 1.0 0.00 0.62 0.62 96 1018.5
20260830065144 55 213 0.0 1.0 0.00 0.62 0.62 96 1018.5
20260830064641 55 214 0.0 0.0 0.00 0.62 0.62 96 1018.4
20260830064357 55 214 0.0 1.0 0.00 0.62 0.62 96 1018.4
20260830064129 55 214 0.0 1.0 0.00 0.62 0.62 96 1018.3
20260830063136 55 214 0.0 0.0 0.00 0.62 0.62 96 1018.3
20260830062632 55 214 0.0 1.0 0.00 0.62 0.62 96 1018.3
20260830062132 55 214 0.0 1.0 0.00 0.62 0.62 96 1018.3
20260830061632 55 214 0.0 1.0 0.00 0.62 0.62 95 1018.3
20260830061132 55 214 0.0 1.0 0.00 0.62 0.62 95 1018.3
20260830060633 55 214 0.0 0.0 0.00 0.62 0.62 95 1018.3
20260830060130 55 214 0.0 0.0 0.00 0.62 0.62 95 1018.3
20260830055631 56 214 0.0 0.0 0.00 0.62 0.62 95 1018.3
20260830055351 56 214 0.0 0.0 0.00 0.62 0.62 95 1018.3
20260830054633 56 214 0.0 0.0 0.00 0.62 0.62 95 1018.1
20260830054354 56 214 0.0 0.0 0.00 0.62 0.62 95 1018.3
20260830053630 56 214 0.0 0.0 0.00 0.62 0.62 95 1018.1
20260830053131 56 214 0.0 0.0 0.00 0.62 0.62 95 1018.1
20260830052858 56 214 0.0 0.0 0.00 0.62 0.62 95 1018.3
20260830052130 56 214 0.0 0.0 0.00 0.62 0.62 95 1018.3
20260830051631 56 214 0.0 0.0 0.00 0.62 0.62 95 1018.3